Flag for Germany Past Weather in Heidenheim an der Brenz, Baden-Württemberg, Germany — Yesterday and Last 2 Weeks

Now
63 °F

Passing clouds.


Feels Like: 63 °F
Forecast: 60 / 72 °F
Wind: 3 mph from Southwest

Location: Laupheim Airport

Current Time: Jul 26, 2016 at 6:39:58 AM

Latest Report: Jul 26, 2016 at 5:20 AM


Visibility: 4 mi

Pressure: 30.15 "Hg

Humidity: 94%

Dew Point: 61 °F

Location of Heidenheim an der BrenzLocation

Past Weather in Heidenheim an der Brenz — Graph

°F

Heidenheim an der Brenz Temperature Yesterday

Maximum temperature yesterday: 77 °F (at 1:20 PM)
Minimum temperature yesterday: 63 °F (at 6:20 AM)
Average temperature yesterday: 69 °F

High & Low Weather Summary for the Past Weeks

 TemperatureHumidityPressure
High88 °F (Jul 20, 6:20 PM)100% (Jul 12, 11:20 PM)30.36 "Hg (Jul 12, 11:20 PM)
Low46 °F (Jul 15, 5:20 AM)29% (Jul 20, 7:20 PM)29.92 "Hg (Jul 11, 3:20 PM)
Average66 °F75%30.11 "Hg
* Reported Jul 11 5:20 AM — Jul 26 5:20 AM, Heidenheim an der Brenz, Weather by CustomWeather, © 2016

Note: Actual official high and low records may vary slightly from our data, if they occured in-between our weather recording intervals... More about our weather records

Advertising

Heidenheim an der Brenz Weather History for the Previous 24 Hours

Scroll right to see more
 ConditionsComfort  
Time TempWeatherWind HumidityBarometerVisibility
5:20 AM
Tue, Jul 26
63 °FPassing clouds.3 mph94%30.15 "Hg4 mi
4:20 AM63 °FPassing clouds.3 mph94%30.12 "HgN/A
3:20 AM63 °FPassing clouds.3 mph94%30.15 "HgN/A
2:20 AM64 °FPassing clouds.3 mph88%30.15 "HgN/A
1:20 AM63 °FPassing clouds.3 mph94%30.15 "Hg6 mi
12:20 AM63 °FPassing clouds.2 mph94%30.15 "Hg5 mi
11:20 PM
Mon, Jul 25
64 °FLight rain. Passing clouds.3 mph94%30.18 "Hg5 mi
10:20 PM64 °FThunderstorms. Partly cloudy.8 mph94%30.15 "Hg5 mi
9:20 PM68 °FThunderstorms. Broken clouds.12 mph78%30.15 "Hg6 mi
8:55 PM70 °FThundershowers. Broken clouds.7 mph78%30.15 "Hg5 mi
8:20 PM70 °FScattered showers. Scattered clouds.6 mph78%30.12 "HgN/A
7:20 PM70 °FScattered showers. Scattered clouds.3 mph83%30.12 "HgN/A
6:20 PM72 °FScattered showers. Scattered clouds.9 mph78%30.09 "HgN/A
5:20 PM75 °FThundershowers. Broken clouds.5 mph61%30.09 "HgN/A
4:20 PM77 °FSprinkles. Broken clouds.3 mph61%30.09 "HgN/A
3:20 PM77 °FScattered showers. Broken clouds.5 mph57%30.09 "HgN/A
2:20 PM75 °FBroken clouds.3 mph61%30.09 "HgN/A
1:20 PM77 °FBroken clouds.2 mph54%30.12 "HgN/A
12:20 PM75 °FBroken clouds.2 mph61%30.12 "HgN/A
11:20 AM73 °FBroken clouds.3 mph69%30.12 "HgN/A
10:20 AM72 °FScattered clouds.1 mph73%30.12 "HgN/A
9:20 AM68 °FPassing clouds.3 mph83%30.15 "HgN/A
8:20 AM66 °FScattered clouds.5 mph88%30.15 "HgN/A
7:20 AM64 °FScattered clouds.3 mph88%30.12 "HgN/A
6:20 AM63 °FPassing clouds.2 mph94%30.12 "HgN/A
Weather by CustomWeather, © 2016

See weather overviewHow to use our weather pages